This is the latest recevied weather packets stored in our database for station/object IZ0VWB-3. If no packets are shown the sender has not sent any weather packets the latest 10 day(s).
| Time | Temp. | Humidity | Pressure | Rain* | Wind** | Luminosity | Snow |
|---|---|---|---|---|---|---|---|
| 1777775320 | 8.89° C | 79% | 1007.5 hPa | 0 mm | - | - | - |
| 1777774718 | 8.89° C | 80% | 1007.6 hPa | 0 mm | - | - | - |
| 1777774119 | 8.89° C | 79% | 1007.7 hPa | 0 mm | - | - | - |
| 1777773519 | 8.89° C | 79% | 1007.7 hPa | 0 mm | - | - | - |
| 1777772920 | 9.44° C | 78% | 1007.6 hPa | 0 mm | - | - | - |
| 1777772319 | 9.44° C | 77% | 1007.7 hPa | 0 mm | - | - | - |
| 1777771719 | 9.44° C | 76% | 1007.7 hPa | 0 mm | - | - | - |
| 1777771120 | 10° C | 76% | 1007.8 hPa | 0 mm | - | - | - |
| 1777770516 | 10° C | 75% | 1007.8 hPa | 0 mm | - | - | - |
| 1777769917 | 10.56° C | 74% | 1007.9 hPa | 0 mm | - | - | - |
| 1777769316 | 10.56° C | 74% | 1008 hPa | 0 mm | - | - | - |
| 1777768717 | 10.56° C | 73% | 1008.1 hPa | 0 mm | - | - | - |
| 1777768117 | 11.11° C | 72% | 1008.1 hPa | 0 mm | - | - | - |
| 1777767517 | 10.56° C | 72% | 1008.3 hPa | 0 mm | - | - | - |
| 1777766917 | 11.11° C | 71% | 1008.3 hPa | 0 mm | - | - | - |
| 1777766316 | 11.11° C | 70% | 1008.2 hPa | 0 mm | - | - | - |
| 1777765716 | 11.11° C | 70% | 1008.4 hPa | 0 mm | - | - | - |
| 1777765117 | 11.67° C | 69% | 1008.4 hPa | 0 mm | - | - | - |
| 1777764517 | 11.67° C | 69% | 1008.4 hPa | 0 mm | - | - | - |
| 1777763916 | 11.67° C | 68% | 1008.5 hPa | 0 mm | - | - | - |
| 1777763317 | 11.67° C | 68% | 1008.6 hPa | 0 mm | - | - | - |
| 1777762717 | 11.67° C | 67% | 1008.6 hPa | 0 mm | - | - | - |
| 1777762117 | 12.22° C | 67% | 1008.7 hPa | 0 mm | - | - | - |
| 1777761516 | 11.67° C | 67% | 1008.8 hPa | 0 mm | - | - | - |
| 1777760916 | 11.67° C | 66% | 1008.7 hPa | 0 mm | - | - | - |
* Rain latest hour (hover to see other rain measurements)
** Current wind speed in m/s (hover to see current wind gust speed)